Location: ?ejeti?ky
(50.4060°N, 14.9016°E)
Time: 09:45:07
(UTC+00:00)

STARLINK-1282 - Pass Details

Date: 05 October 2020
Orbit: 549 x 550 km, 53.0° (Epoch: 21 October)

Event Time Altitude Azimuth Distance (km) Brightness Sun altitude
Exits shadow 04:00:49 14° 236° (WSW) 1,601 5.4 -11.4°
Maximum altitude 04:04:23 70° 154° (SSE) 586 3.8 -10.8°
Drops below altitude 10° 04:08:31 10° 71° (ENE) 1,827 7.7 -10.2°
Sets 04:10:45 0° 69° (ENE) 2,723 8.8 -9.8°
